TimeMST,TemperatureF,Dew PointF,Humidity,Sea Level PressureIn,VisibilityMPH,Wind Direction,Wind SpeedMPH,Gust SpeedMPH,PrecipitationIn,Events,Conditions,WindDirDegrees,DateUTC
12:55 AM,53.1,24.1,32,29.92,10.0,SSE,5.8,-,N/A,,Clear,150,2013-02-18 07:55:00
1:55 AM,55.0,19.9,25,29.92,10.0,Calm,Calm,-,N/A,,Clear,0,2013-02-18 08:55:00
2:55 AM,53.1,25.0,34,29.92,10.0,Calm,Calm,-,N/A,,Clear,0,2013-02-18 09:55:00
3:55 AM,51.1,28.0,41,29.92,10.0,Calm,Calm,-,N/A,,Clear,0,2013-02-18 10:55:00
4:55 AM,48.0,28.0,46,29.93,10.0,NE,4.6,-,N/A,,Clear,40,2013-02-18 11:55:00
5:55 AM,48.9,28.0,44,29.94,10.0,Calm,Calm,-,N/A,,Clear,0,2013-02-18 12:55:00
6:55 AM,48.9,28.0,44,29.96,10.0,NNE,4.6,-,N/A,,Partly Cloudy,30,2013-02-18 13:55:00
7:55 AM,50.0,28.9,44,29.98,10.0,NE,4.6,-,N/A,,Partly Cloudy,40,2013-02-18 14:55:00
8:55 AM,55.0,27.0,34,30.00,10.0,NNE,5.8,-,N/A,,Scattered Clouds,20,2013-02-18 15:55:00
9:55 AM,59.0,30.0,33,30.01,10.0,NE,5.8,-,N/A,,Scattered Clouds,50,2013-02-18 16:55:00
10:55 AM,64.9,28.0,25,30.00,10.0,ENE,5.8,-,N/A,,Scattered Clouds,70,2013-02-18 17:55:00
11:55 AM,69.1,24.1,18,29.99,10.0,East,3.5,-,N/A,,Scattered Clouds,80,2013-02-18 18:55:00
12:55 PM,71.1,26.1,19,29.96,10.0,Variable,3.5,-,N/A,,Scattered Clouds,0,2013-02-18 19:55:00
1:55 PM,73.0,26.1,17,29.93,10.0,Calm,Calm,-,N/A,,Scattered Clouds,0,2013-02-18 20:55:00
2:55 PM,73.0,27.0,18,29.92,10.0,Calm,Calm,-,N/A,,Mostly Cloudy,0,2013-02-18 21:55:00
3:55 PM,73.9,28.0,18,29.90,10.0,NW,4.6,-,N/A,,Clear,310,2013-02-18 22:55:00
4:55 PM,73.9,27.0,18,29.88,10.0,Calm,Calm,-,N/A,,Mostly Cloudy,0,2013-02-18 23:55:00
5:55 PM,72.0,28.9,20,29.87,10.0,West,4.6,-,N/A,,Mostly Cloudy,270,2013-02-19 00:55:00
6:55 PM,69.1,30.0,23,29.86,10.0,Calm,Calm,-,N/A,,Scattered Clouds,0,2013-02-19 01:55:00
7:55 PM,64.0,32.0,30,29.87,10.0,Calm,Calm,-,N/A,,Scattered Clouds,0,2013-02-19 02:55:00
8:55 PM,61.0,34.0,36,29.87,10.0,Calm,Calm,-,N/A,,Scattered Clouds,0,2013-02-19 03:55:00
9:55 PM,57.9,33.1,39,29.87,10.0,South,9.2,-,N/A,,Scattered Clouds,170,2013-02-19 04:55:00
10:55 PM,57.0,33.1,40,29.88,10.0,SW,5.8,-,N/A,,Mostly Cloudy,220,2013-02-19 05:55:00
11:55 PM,55.9,35.1,45,29.88,10.0,Calm,Calm,-,N/A,,Mostly Cloudy,0,2013-02-19 06:55:00